{"data":{"norad_id":63862,"intl_designator":"2025-093AC","name":"STARLINK-33878","alt_names":[],"object_type":"PAYLOAD","status":"ACTIVE","operator":null,"country":"US","launch_date":"2025-05-07","launch_site_code":"AFETR","launch_vehicle":null,"mission":null,"orbit_class":"UNKNOWN","rcs_meters":null,"size_class":null,"mass_kg":null,"dimensions":null,"purposes":["comms"],"wikipedia_slug":null,"has_3d_model":false,"image_url":null,"decayed_at":null,"tle_current":{"epoch":"2026-05-25T00:25:02.617824Z","epoch_age_seconds":73563,"freshness":"FRESH","line1":"1 63862U 25093AC  26145.01739141  .00013850  00000+0  51163-3 0  9993","line2":"2 63862  43.0025   6.9557 0001601 283.6076  76.4598 15.27595341 59637","mean_motion":15.27595341,"eccentricity":0.0001601,"inclination_deg":43.0025,"raan_deg":6.9557,"arg_perigee_deg":283.6076,"mean_anomaly_deg":76.4598,"bstar":0.00051163,"rev_number":5963,"period_min":94.265802032189,"perigee_km":481.90469141158,"apogee_km":484.1016284908,"semimajor_km":6861.1401599512,"source":"CELESTRAK","updated_at":"2026-05-25T13:38:20.167334Z"}}}